Location: Ellerstadt
(49.4644°N, 8.2615°E)
Time: 01:26:50
(UTC+00:00)

IRIDIUM 100 - Pass Details

Date: 26 September 2021
Orbit: 776 x 779 km, 86.4° (Epoch: 19 October)

Event Time Altitude Azimuth Distance (km) Brightness Sun altitude
Exits shadow 23:41:27 12° 39° (NE) 2,169 ? -41.9°
Drops below altitude 10° 23:42:08 10° 33° (NNE) 2,341 ? -41.9°
Sets 23:45:06 0° 16° (NNE) 3,274 ? -41.8°
